contact:dominique.lefevre@mio.osupytheas.fr, maurice.libes@osupytheas.fr, didier.mallarino@osupytheas.fr
Project:EMSO http://www.emso-fr.org/EMSO-France
Depth: 2436.0 m
Title:EMSO Ligure Ouest : Data MII capteur CSTAR
DateTime,Latitude,Longitude,Instrument_Serial,Reference_Counts,Signal_Counts,Corrected_Signal_raw_counts,Calculated_Beam_c_inverse_meters,Internal_thermistor_counts
DateTime,Latitude,Longitude,Instrument_Serial,Reference_Counts,Signal_Counts,Corrected_Signal_raw_counts,Calculated_Beam_c_inverse_meters,Internal_thermistor_counts
2019-09-15T00:01:37,42.805,6.029,CST-1368DR,7989,11190,15395,0.057,551
2019-09-15T00:04:39,42.805,6.029,CST-1368DR,7989,11189,15394,0.057,551
2019-09-15T00:07:40,42.805,6.029,CST-1368DR,7989,11190,15395,0.057,551
2019-09-15T00:10:42,42.805,6.029,CST-1368DR,7989,11189,15394,0.057,551
2019-09-15T00:13:44,42.805,6.029,CST-1368DR,7989,11190,15395,0.057,551
2019-09-15T00:16:45,42.805,6.029,CST-1368DR,7989,11189,15394,0.057,551
2019-09-15T00:19:47,42.805,6.029,CST-1368DR,7989,11187,15392,0.058,551
2019-09-15T00:22:48,42.805,6.029,CST-1368DR,7989,11190,15395,0.057,550
2019-09-15T00:25:50,42.805,6.029,CST-1368DR,7989,11190,15395,0.057,551
2019-09-15T00:28:52,42.805,6.029,CST-1368DR,7989,11189,15393,0.058,551
2019-09-15T00:31:53,42.805,6.029,CST-1368DR,7989,11189,15393,0.058,551
2019-09-15T00:34:55,42.805,6.029,CST-1368DR,7989,11190,15395,0.057,551
2019-09-15T00:37:57,42.805,6.029,CST-1368DR,7989,11189,15394,0.057,551
2019-09-15T00:40:58,42.805,6.029,CST-1368DR,7989,11189,15394,0.057,550
2019-09-15T00:44:00,42.805,6.029,CST-1368DR,7989,11189,15394,0.057,551
2019-09-15T00:47:02,42.805,6.029,CST-1368DR,7988,11188,15394,0.057,551
2019-09-15T00:50:03,42.805,6.029,CST-1368DR,7989,11190,15395,0.057,551
2019-09-15T00:53:05,42.805,6.029,CST-1368DR,7989,11190,15395,0.057,551
2019-09-15T00:56:07,42.805,6.029,CST-1368DR,7988,11190,15397,0.056,551
2019-09-15T00:59:08,42.805,6.029,CST-1368DR,7988,11187,15393,0.058,550
2019-09-15T01:02:10,42.805,6.029,CST-1368DR,7988,11189,15396,0.057,550
2019-09-15T01:05:11,42.805,6.029,CST-1368DR,7989,11189,15394,0.057,551
2019-09-15T01:08:13,42.805,6.029,CST-1368DR,7988,11189,15396,0.057,551
2019-09-15T01:11:15,42.805,6.029,CST-1368DR,7988,11190,15396,0.057,551
2019-09-15T01:14:16,42.805,6.029,CST-1368DR,7988,11189,15395,0.057,550
2019-09-15T01:17:18,42.805,6.029,CST-1368DR,7988,11189,15395,0.057,550
2019-09-15T01:20:20,42.805,6.029,CST-1368DR,7988,11187,15392,0.058,551
2019-09-15T01:23:21,42.805,6.029,CST-1368DR,7988,11188,15394,0.057,551
2019-09-15T01:26:23,42.805,6.029,CST-1368DR,7988,11186,15392,0.058,550
2019-09-15T01:29:25,42.805,6.029,CST-1368DR,7988,11188,15394,0.057,550
2019-09-15T01:32:26,42.805,6.029,CST-1368DR,7988,11186,15392,0.058,551
2019-09-15T01:35:28,42.805,6.029,CST-1368DR,7988,11188,15394,0.057,551
2019-09-15T01:38:30,42.805,6.029,CST-1368DR,7988,11188,15395,0.057,551
2019-09-15T01:41:31,42.805,6.029,CST-1368DR,7988,11188,15394,0.057,551
2019-09-15T01:44:33,42.805,6.029,CST-1368DR,7988,11188,15395,0.057,551
2019-09-15T01:47:35,42.805,6.029,CST-1368DR,7988,11187,15393,0.058,551
2019-09-15T01:50:36,42.805,6.029,CST-1368DR,7988,11189,15395,0.057,551
2019-09-15T01:53:38,42.805,6.029,CST-1368DR,7988,11188,15394,0.057,551
2019-09-15T01:56:40,42.805,6.029,CST-1368DR,7988,11187,15392,0.058,550
2019-09-15T01:59:41,42.805,6.029,CST-1368DR,7988,11189,15395,0.057,551
2019-09-15T02:02:43,42.805,6.029,CST-1368DR,7988,11189,15396,0.057,551
2019-09-15T02:05:45,42.805,6.029,CST-1368DR,7988,11187,15393,0.058,551
2019-09-15T02:08:46,42.805,6.029,CST-1368DR,7988,11188,15394,0.057,551
2019-09-15T02:11:48,42.805,6.029,CST-1368DR,7988,11188,15395,0.057,551
2019-09-15T02:14:49,42.805,6.029,CST-1368DR,7988,11187,15393,0.058,551
2019-09-15T02:17:51,42.805,6.029,CST-1368DR,7988,11186,15392,0.058,551
2019-09-15T02:20:53,42.805,6.029,CST-1368DR,7988,11181,15385,0.060,551
2019-09-15T02:23:54,42.805,6.029,CST-1368DR,7988,11188,15395,0.057,551
2019-09-15T02:26:56,42.805,6.029,CST-1368DR,7988,11187,15393,0.058,550
2019-09-15T02:29:58,42.805,6.029,CST-1368DR,7987,11186,15393,0.058,550
2019-09-15T02:32:59,42.805,6.029,CST-1368DR,7987,11186,15393,0.058,551
2019-09-15T02:36:01,42.805,6.029,CST-1368DR,7987,11185,15391,0.058,551
2019-09-15T02:39:03,42.805,6.029,CST-1368DR,7987,11185,15392,0.058,551
2019-09-15T02:42:04,42.805,6.029,CST-1368DR,7987,11187,15394,0.057,551
2019-09-15T02:45:06,42.805,6.029,CST-1368DR,7987,11189,15397,0.056,551
2019-09-15T02:48:08,42.805,6.029,CST-1368DR,7987,11186,15394,0.057,550
2019-09-15T02:51:09,42.805,6.029,CST-1368DR,7987,11188,15396,0.057,551
2019-09-15T02:54:11,42.805,6.029,CST-1368DR,7987,11187,15394,0.057,551
2019-09-15T02:57:13,42.805,6.029,CST-1368DR,7987,11187,15395,0.057,551
2019-09-15T03:00:14,42.805,6.029,CST-1368DR,7987,11184,15390,0.058,551
2019-09-15T03:03:16,42.805,6.029,CST-1368DR,7987,11187,15395,0.057,551
2019-09-15T03:06:18,42.805,6.029,CST-1368DR,7987,11185,15391,0.058,551
2019-09-15T03:09:19,42.805,6.029,CST-1368DR,7987,11186,15393,0.058,551
2019-09-15T03:12:21,42.805,6.029,CST-1368DR,7987,11183,15389,0.059,551
2019-09-15T03:15:23,42.805,6.029,CST-1368DR,7987,11185,15391,0.058,551
2019-09-15T03:18:24,42.805,6.029,CST-1368DR,7987,11186,15393,0.058,550
2019-09-15T03:21:26,42.805,6.029,CST-1368DR,7987,11184,15391,0.058,551
2019-09-15T03:24:28,42.805,6.029,CST-1368DR,7979,10247,14115,0.404,551
2019-09-15T03:27:29,42.805,6.029,CST-1368DR,7987,11179,15384,0.060,551
2019-09-15T03:30:31,42.805,6.029,CST-1368DR,7987,11186,15393,0.058,551
2019-09-15T03:33:33,42.805,6.029,CST-1368DR,7987,11187,15395,0.057,551
2019-09-15T03:36:34,42.805,6.029,CST-1368DR,7987,11187,15394,0.057,551
2019-09-15T03:39:36,42.805,6.029,CST-1368DR,7987,11189,15397,0.056,551
2019-09-15T03:42:38,42.805,6.029,CST-1368DR,7987,11188,15396,0.057,550
2019-09-15T03:45:40,42.805,6.029,CST-1368DR,7987,11188,15396,0.057,551
2019-09-15T03:48:41,42.805,6.029,CST-1368DR,7987,11188,15397,0.056,550
2019-09-15T03:51:43,42.805,6.029,CST-1368DR,7987,11186,15394,0.057,551
2019-09-15T03:54:44,42.805,6.029,CST-1368DR,7987,11186,15393,0.058,551
2019-09-15T03:57:46,42.805,6.029,CST-1368DR,7987,11187,15394,0.057,550
2019-09-15T04:00:48,42.805,6.029,CST-1368DR,7987,11186,15394,0.057,550
2019-09-15T04:03:50,42.805,6.029,CST-1368DR,7987,11188,15396,0.057,551
2019-09-15T04:06:51,42.805,6.029,CST-1368DR,7987,11188,15396,0.057,551
2019-09-15T04:09:53,42.805,6.029,CST-1368DR,7987,11188,15396,0.057,551
2019-09-15T04:12:54,42.805,6.029,CST-1368DR,7987,11187,15395,0.057,551
2019-09-15T04:15:56,42.805,6.029,CST-1368DR,7987,11185,15392,0.058,551
2019-09-15T04:18:58,42.805,6.029,CST-1368DR,7987,11187,15395,0.057,551
2019-09-15T04:21:59,42.805,6.029,CST-1368DR,7987,11188,15396,0.057,551
2019-09-15T04:25:01,42.805,6.029,CST-1368DR,7987,11184,15390,0.058,551
2019-09-15T04:28:03,42.805,6.029,CST-1368DR,7987,11187,15394,0.057,551
2019-09-15T04:31:04,42.805,6.029,CST-1368DR,7987,11185,15392,0.058,551
2019-09-15T04:34:06,42.805,6.029,CST-1368DR,7987,11180,15386,0.059,551
2019-09-15T04:37:08,42.805,6.029,CST-1368DR,7987,11185,15391,0.058,551
2019-09-15T04:40:09,42.805,6.029,CST-1368DR,7987,11184,15391,0.058,551
2019-09-15T04:43:11,42.805,6.029,CST-1368DR,7987,11187,15394,0.057,551
2019-09-15T04:46:13,42.805,6.029,CST-1368DR,7987,11186,15394,0.057,551
2019-09-15T04:49:14,42.805,6.029,CST-1368DR,7987,11187,15395,0.057,551
2019-09-15T04:52:16,42.805,6.029,CST-1368DR,7987,11188,15396,0.057,551
2019-09-15T04:55:18,42.805,6.029,CST-1368DR,7987,11186,15394,0.057,551
2019-09-15T04:58:19,42.805,6.029,CST-1368DR,7987,11186,15393,0.058,551
2019-09-15T05:01:21,42.805,6.029,CST-1368DR,7987,11184,15391,0.058,551
2019-09-15T05:04:23,42.805,6.029,CST-1368DR,7987,11187,15394,0.057,551
2019-09-15T05:07:24,42.805,6.029,CST-1368DR,7987,11185,15392,0.058,551
2019-09-15T05:10:26,42.805,6.029,CST-1368DR,7987,11186,15393,0.058,551
2019-09-15T05:13:28,42.805,6.029,CST-1368DR,7987,11186,15393,0.058,550
2019-09-15T05:16:29,42.805,6.029,CST-1368DR,7987,11187,15394,0.057,551
2019-09-15T05:19:31,42.805,6.029,CST-1368DR,7987,11186,15393,0.058,551
2019-09-15T05:22:33,42.805,6.029,CST-1368DR,7987,11186,15393,0.058,551
2019-09-15T05:25:35,42.805,6.029,CST-1368DR,7987,11187,15394,0.057,551
2019-09-15T05:28:36,42.805,6.029,CST-1368DR,7987,11186,15393,0.058,551
2019-09-15T05:31:38,42.805,6.029,CST-1368DR,7987,11186,15394,0.057,551
2019-09-15T05:34:39,42.805,6.029,CST-1368DR,7987,11185,15392,0.058,551
2019-09-15T05:37:41,42.805,6.029,CST-1368DR,7987,11187,15394,0.057,551
2019-09-15T05:40:43,42.805,6.029,CST-1368DR,7987,11187,15394,0.057,551
2019-09-15T05:43:44,42.805,6.029,CST-1368DR,7986,11186,15395,0.057,551
2019-09-15T05:46:46,42.805,6.029,CST-1368DR,7987,11187,15394,0.057,551
2019-09-15T05:49:48,42.805,6.029,CST-1368DR,7986,11185,15394,0.057,551
2019-09-15T05:52:49,42.805,6.029,CST-1368DR,7986,11186,15395,0.057,551
2019-09-15T05:55:51,42.805,6.029,CST-1368DR,7986,11187,15396,0.057,551
2019-09-15T05:58:52,42.805,6.029,CST-1368DR,7986,11186,15395,0.057,551
2019-09-15T06:01:54,42.805,6.029,CST-1368DR,7986,11184,15392,0.058,551
2019-09-15T06:04:56,42.805,6.029,CST-1368DR,7986,11186,15396,0.057,551
2019-09-15T06:07:57,42.805,6.029,CST-1368DR,7986,11186,15395,0.057,551
2019-09-15T06:10:59,42.805,6.029,CST-1368DR,7986,11186,15395,0.057,551
2019-09-15T06:14:01,42.805,6.029,CST-1368DR,7986,11185,15394,0.057,551
2019-09-15T06:17:02,42.805,6.029,CST-1368DR,7986,11185,15393,0.058,551
2019-09-15T06:20:04,42.805,6.029,CST-1368DR,7986,11186,15395,0.057,551
2019-09-15T06:23:06,42.805,6.029,CST-1368DR,7986,11185,15394,0.057,550
2019-09-15T06:26:07,42.805,6.029,CST-1368DR,7986,11185,15394,0.057,551
2019-09-15T06:29:09,42.805,6.029,CST-1368DR,7986,11186,15395,0.057,551
2019-09-15T06:32:11,42.805,6.029,CST-1368DR,7986,11184,15392,0.058,551
2019-09-15T06:35:12,42.805,6.029,CST-1368DR,7986,11186,15395,0.057,551
2019-09-15T06:38:14,42.805,6.029,CST-1368DR,7986,11184,15392,0.058,551
2019-09-15T06:41:16,42.805,6.029,CST-1368DR,7986,11185,15394,0.057,551
2019-09-15T06:44:17,42.805,6.029,CST-1368DR,7986,11186,15395,0.057,551
2019-09-15T06:47:19,42.805,6.029,CST-1368DR,7986,11187,15396,0.057,551
2019-09-15T06:50:20,42.805,6.029,CST-1368DR,7986,11182,15389,0.059,551
2019-09-15T06:53:22,42.805,6.029,CST-1368DR,7986,11182,15390,0.058,551
2019-09-15T06:56:24,42.805,6.029,CST-1368DR,7986,11186,15395,0.057,551
2019-09-15T06:59:26,42.805,6.029,CST-1368DR,7986,11184,15392,0.058,551
2019-09-15T07:02:27,42.805,6.029,CST-1368DR,7986,11185,15394,0.057,551
2019-09-15T07:05:29,42.805,6.029,CST-1368DR,7986,11185,15393,0.058,551
2019-09-15T07:08:30,42.805,6.029,CST-1368DR,7986,11182,15390,0.058,551
2019-09-15T07:11:32,42.805,6.029,CST-1368DR,7986,11185,15394,0.057,551
2019-09-15T07:14:34,42.805,6.029,CST-1368DR,7986,11186,15395,0.057,551
2019-09-15T07:17:36,42.805,6.029,CST-1368DR,7986,11185,15393,0.058,551
2019-09-15T07:20:37,42.805,6.029,CST-1368DR,7986,11186,15396,0.057,551
2019-09-15T07:23:39,42.805,6.029,CST-1368DR,7986,11186,15395,0.057,551
2019-09-15T07:26:41,42.805,6.029,CST-1368DR,7986,11186,15395,0.057,551
2019-09-15T07:29:42,42.805,6.029,CST-1368DR,7986,11186,15395,0.057,551
2019-09-15T07:32:44,42.805,6.029,CST-1368DR,7986,11186,15395,0.057,551
2019-09-15T07:35:46,42.805,6.029,CST-1368DR,7986,11176,15381,0.061,551
2019-09-15T07:38:47,42.805,6.029,CST-1368DR,7986,11185,15393,0.058,551
2019-09-15T07:41:49,42.805,6.029,CST-1368DR,7986,11154,15351,0.068,551
2019-09-15T07:44:51,42.805,6.029,CST-1368DR,7986,11185,15394,0.057,551
2019-09-15T07:47:52,42.805,6.029,CST-1368DR,7986,11185,15393,0.058,550
2019-09-15T07:50:54,42.805,6.029,CST-1368DR,7986,11184,15392,0.058,550
2019-09-15T07:53:56,42.805,6.029,CST-1368DR,7986,11183,15391,0.058,551
2019-09-15T07:56:57,42.805,6.029,CST-1368DR,7986,11186,15396,0.057,551
2019-09-15T07:59:59,42.805,6.029,CST-1368DR,7986,11186,15395,0.057,551
2019-09-15T08:03:01,42.805,6.029,CST-1368DR,7986,11185,15393,0.058,551
2019-09-15T08:06:02,42.805,6.029,CST-1368DR,7986,11185,15394,0.057,551
2019-09-15T08:09:04,42.805,6.029,CST-1368DR,7986,11187,15396,0.057,551
2019-09-15T08:12:06,42.805,6.029,CST-1368DR,7986,11186,15395,0.057,551
2019-09-15T08:15:07,42.805,6.029,CST-1368DR,7986,11183,15391,0.058,551
2019-09-15T08:18:09,42.805,6.029,CST-1368DR,7986,11185,15394,0.057,551
2019-09-15T08:21:11,42.805,6.029,CST-1368DR,7986,11183,15391,0.058,551
2019-09-15T08:24:12,42.805,6.029,CST-1368DR,7986,11185,15394,0.057,551
2019-09-15T08:27:14,42.805,6.029,CST-1368DR,7986,11184,15392,0.058,551
2019-09-15T08:30:16,42.805,6.029,CST-1368DR,7986,11186,15395,0.057,551
2019-09-15T08:33:17,42.805,6.029,CST-1368DR,7986,11184,15392,0.058,551
2019-09-15T08:36:19,42.805,6.029,CST-1368DR,7986,11185,15393,0.058,551
2019-09-15T08:39:21,42.805,6.029,CST-1368DR,7986,11185,15394,0.057,551
2019-09-15T08:42:22,42.805,6.029,CST-1368DR,7986,11183,15390,0.058,551
2019-09-15T08:45:24,42.805,6.029,CST-1368DR,7986,11183,15391,0.058,551
2019-09-15T08:48:26,42.805,6.029,CST-1368DR,7986,11183,15391,0.058,551
2019-09-15T08:51:27,42.805,6.029,CST-1368DR,7986,11183,15391,0.058,551
2019-09-15T08:54:29,42.805,6.029,CST-1368DR,7986,11184,15393,0.058,551
2019-09-15T08:57:31,42.805,6.029,CST-1368DR,7986,11182,15389,0.059,551
2019-09-15T09:00:32,42.805,6.029,CST-1368DR,7986,11183,15391,0.058,551
2019-09-15T09:03:34,42.805,6.029,CST-1368DR,7986,11183,15391,0.058,551
2019-09-15T09:06:35,42.805,6.029,CST-1368DR,7986,11182,15389,0.059,551
2019-09-15T09:09:37,42.805,6.029,CST-1368DR,7985,11183,15393,0.058,551
2019-09-15T09:12:39,42.805,6.029,CST-1368DR,7985,11183,15393,0.058,551
2019-09-15T09:15:40,42.805,6.029,CST-1368DR,7985,11182,15392,0.058,551
2019-09-15T09:18:42,42.805,6.029,CST-1368DR,7985,11184,15395,0.057,551
2019-09-15T09:21:44,42.805,6.029,CST-1368DR,7985,11182,15392,0.058,551
2019-09-15T09:24:46,42.805,6.029,CST-1368DR,7985,11180,15388,0.059,550
2019-09-15T09:27:47,42.805,6.029,CST-1368DR,7985,11183,15393,0.058,551
2019-09-15T09:30:49,42.805,6.029,CST-1368DR,7985,11182,15392,0.058,551
2019-09-15T09:33:50,42.805,6.029,CST-1368DR,7985,11183,15393,0.058,551
2019-09-15T09:36:52,42.805,6.029,CST-1368DR,7985,11180,15388,0.059,551
2019-09-15T09:39:54,42.805,6.029,CST-1368DR,7985,11182,15392,0.058,551
2019-09-15T09:42:55,42.805,6.029,CST-1368DR,7985,11183,15393,0.058,550
2019-09-15T09:45:57,42.805,6.029,CST-1368DR,7985,11182,15392,0.058,551
2019-09-15T09:48:59,42.805,6.029,CST-1368DR,7985,11183,15393,0.058,551
2019-09-15T09:52:00,42.805,6.029,CST-1368DR,7985,11184,15394,0.057,551
2019-09-15T09:55:02,42.805,6.029,CST-1368DR,7985,11183,15393,0.058,551
2019-09-15T09:58:03,42.805,6.029,CST-1368DR,7985,11184,15394,0.057,551
2019-09-15T10:01:05,42.805,6.029,CST-1368DR,7985,11182,15392,0.058,551
2019-09-15T10:04:07,42.805,6.029,CST-1368DR,7985,11183,15393,0.058,551
2019-09-15T10:07:08,42.805,6.029,CST-1368DR,7985,11183,15393,0.058,551
2019-09-15T10:10:10,42.805,6.029,CST-1368DR,7985,11183,15393,0.058,551
2019-09-15T10:13:12,42.805,6.029,CST-1368DR,7985,11183,15393,0.058,551
2019-09-15T10:16:13,42.805,6.029,CST-1368DR,7985,11183,15393,0.058,551
2019-09-15T10:19:15,42.805,6.029,CST-1368DR,7985,11183,15393,0.058,551
2019-09-15T10:22:16,42.805,6.029,CST-1368DR,7985,11183,15393,0.058,551
2019-09-15T10:25:18,42.805,6.029,CST-1368DR,7985,11184,15394,0.057,551
2019-09-15T10:28:20,42.805,6.029,CST-1368DR,7985,11181,15389,0.059,551
2019-09-15T10:31:21,42.805,6.029,CST-1368DR,7985,11183,15393,0.058,551
2019-09-15T10:34:23,42.805,6.029,CST-1368DR,7985,11182,15392,0.058,551
2019-09-15T10:37:25,42.805,6.029,CST-1368DR,7985,11183,15393,0.058,551
2019-09-15T10:40:26,42.805,6.029,CST-1368DR,7985,11182,15392,0.058,551
2019-09-15T10:43:28,42.805,6.029,CST-1368DR,7985,11184,15394,0.057,551
2019-09-15T10:46:29,42.805,6.029,CST-1368DR,7985,11179,15387,0.059,551
2019-09-15T10:49:31,42.805,6.029,CST-1368DR,7985,11183,15392,0.058,551
2019-09-15T10:52:33,42.805,6.029,CST-1368DR,7985,11183,15393,0.058,551
2019-09-15T10:55:34,42.805,6.029,CST-1368DR,7985,11183,15393,0.058,551
2019-09-15T10:58:36,42.805,6.029,CST-1368DR,7985,11183,15392,0.058,551
2019-09-15T11:01:38,42.805,6.029,CST-1368DR,7985,11182,15392,0.058,551
2019-09-15T11:04:39,42.805,6.029,CST-1368DR,7985,11184,15394,0.057,551
2019-09-15T11:07:41,42.805,6.029,CST-1368DR,7985,11181,15389,0.059,550
2019-09-15T11:10:43,42.805,6.029,CST-1368DR,7985,11181,15390,0.058,551
2019-09-15T11:13:44,42.805,6.029,CST-1368DR,7985,11183,15392,0.058,551
2019-09-15T11:16:46,42.805,6.029,CST-1368DR,7985,11182,15392,0.058,551
2019-09-15T11:19:47,42.805,6.029,CST-1368DR,7985,11183,15393,0.058,551
2019-09-15T11:22:49,42.805,6.029,CST-1368DR,7985,11183,15393,0.058,551
2019-09-15T11:25:51,42.805,6.029,CST-1368DR,7985,11183,15393,0.058,551
2019-09-15T11:28:52,42.805,6.029,CST-1368DR,7985,11182,15392,0.058,551
2019-09-15T11:31:54,42.805,6.029,CST-1368DR,7985,11183,15392,0.058,551
2019-09-15T11:34:56,42.805,6.029,CST-1368DR,7985,11184,15394,0.057,551
2019-09-15T11:37:57,42.805,6.029,CST-1368DR,7985,11182,15391,0.058,551
2019-09-15T11:40:59,42.805,6.029,CST-1368DR,7985,11182,15391,0.058,551
2019-09-15T11:44:00,42.805,6.029,CST-1368DR,7984,11182,15393,0.058,551
2019-09-15T11:47:02,42.805,6.029,CST-1368DR,7984,11183,15395,0.057,551
2019-09-15T11:50:04,42.805,6.029,CST-1368DR,7985,11182,15392,0.058,551
2019-09-15T11:53:05,42.805,6.029,CST-1368DR,7985,11182,15391,0.058,551
2019-09-15T11:56:07,42.805,6.029,CST-1368DR,7985,11178,15386,0.059,551
2019-09-15T11:59:09,42.805,6.029,CST-1368DR,7985,11182,15391,0.058,551
2019-09-15T12:02:10,42.805,6.029,CST-1368DR,7984,11181,15392,0.058,551
2019-09-15T12:05:12,42.805,6.029,CST-1368DR,7984,11180,15391,0.058,551
2019-09-15T12:08:14,42.805,6.029,CST-1368DR,7984,11180,15390,0.058,551
2019-09-15T12:11:16,42.805,6.029,CST-1368DR,7984,11182,15393,0.058,551
2019-09-15T12:14:17,42.805,6.029,CST-1368DR,7984,11182,15394,0.057,551
2019-09-15T12:17:19,42.805,6.029,CST-1368DR,7984,11182,15393,0.058,551
2019-09-15T12:20:20,42.805,6.029,CST-1368DR,7984,11182,15393,0.058,551
2019-09-15T12:23:22,42.805,6.029,CST-1368DR,7984,11183,15394,0.057,551
2019-09-15T12:26:24,42.805,6.029,CST-1368DR,7984,11182,15393,0.058,551
2019-09-15T12:29:25,42.805,6.029,CST-1368DR,7984,11181,15392,0.058,551
2019-09-15T12:32:27,42.805,6.029,CST-1368DR,7984,11182,15393,0.058,551
2019-09-15T12:35:29,42.805,6.029,CST-1368DR,7984,11183,15395,0.057,551
2019-09-15T12:38:30,42.805,6.029,CST-1368DR,7984,11182,15393,0.058,551
2019-09-15T12:41:32,42.805,6.029,CST-1368DR,7984,11184,15395,0.057,551
2019-09-15T12:44:33,42.805,6.029,CST-1368DR,7984,11183,15394,0.057,550
2019-09-15T12:47:35,42.805,6.029,CST-1368DR,7984,11179,15390,0.058,551
2019-09-15T12:50:37,42.805,6.029,CST-1368DR,7984,11183,15394,0.057,551
2019-09-15T12:53:38,42.805,6.029,CST-1368DR,7984,11183,15394,0.057,551
2019-09-15T12:56:40,42.805,6.029,CST-1368DR,7984,11182,15393,0.058,551
2019-09-15T12:59:42,42.805,6.029,CST-1368DR,7984,11181,15392,0.058,551
2019-09-15T13:02:43,42.805,6.029,CST-1368DR,7984,11183,15394,0.057,551
2019-09-15T13:05:45,42.805,6.029,CST-1368DR,7984,11183,15395,0.057,551
2019-09-15T13:08:46,42.805,6.029,CST-1368DR,7984,11183,15394,0.057,551
2019-09-15T13:11:48,42.805,6.029,CST-1368DR,7984,11183,15395,0.057,551
2019-09-15T13:14:50,42.805,6.029,CST-1368DR,7984,11183,15394,0.057,551
2019-09-15T13:17:51,42.805,6.029,CST-1368DR,7984,11183,15394,0.057,551
2019-09-15T13:20:53,42.805,6.029,CST-1368DR,7984,11182,15394,0.057,551
2019-09-15T13:23:55,42.805,6.029,CST-1368DR,7984,11183,15394,0.057,551
2019-09-15T13:26:56,42.805,6.029,CST-1368DR,7984,11178,15387,0.059,551
2019-09-15T13:29:58,42.805,6.029,CST-1368DR,7984,11181,15392,0.058,551
2019-09-15T13:33:00,42.805,6.029,CST-1368DR,7984,11183,15395,0.057,551
2019-09-15T13:36:01,42.805,6.029,CST-1368DR,7984,11182,15393,0.058,551
2019-09-15T13:39:03,42.805,6.029,CST-1368DR,7984,11181,15392,0.058,551
2019-09-15T13:42:05,42.805,6.029,CST-1368DR,7984,11183,15394,0.057,551
2019-09-15T13:45:06,42.805,6.029,CST-1368DR,7984,11183,15395,0.057,551
2019-09-15T13:48:08,42.805,6.029,CST-1368DR,7984,11182,15394,0.057,551
2019-09-15T13:51:09,42.805,6.029,CST-1368DR,7984,11183,15394,0.057,551
2019-09-15T13:54:11,42.805,6.029,CST-1368DR,7984,11183,15394,0.057,551
2019-09-15T13:57:13,42.805,6.029,CST-1368DR,7984,11179,15390,0.058,551
2019-09-15T14:00:14,42.805,6.029,CST-1368DR,7984,11182,15393,0.058,551
2019-09-15T14:03:16,42.805,6.029,CST-1368DR,7984,11183,15394,0.057,551
2019-09-15T14:06:18,42.805,6.029,CST-1368DR,7984,11183,15394,0.057,551
2019-09-15T14:09:19,42.805,6.029,CST-1368DR,7984,11183,15394,0.057,551
2019-09-15T14:12:21,42.805,6.029,CST-1368DR,7984,11183,15394,0.057,550
2019-09-15T14:15:23,42.805,6.029,CST-1368DR,7984,11180,15390,0.058,550
2019-09-15T14:18:24,42.805,6.029,CST-1368DR,7984,11180,15390,0.058,551
2019-09-15T14:21:26,42.805,6.029,CST-1368DR,7984,11182,15393,0.058,551
2019-09-15T14:24:27,42.805,6.029,CST-1368DR,7984,11182,15393,0.058,551
2019-09-15T14:27:29,42.805,6.029,CST-1368DR,7984,11182,15393,0.058,551
2019-09-15T14:30:31,42.805,6.029,CST-1368DR,7984,11182,15393,0.058,551
2019-09-15T14:33:32,42.805,6.029,CST-1368DR,7984,11181,15392,0.058,551
2019-09-15T14:36:34,42.805,6.029,CST-1368DR,7980,10820,14902,0.187,551
2019-09-15T14:39:36,42.805,6.029,CST-1368DR,7984,11181,15391,0.058,551
2019-09-15T14:42:37,42.805,6.029,CST-1368DR,7983,11175,15385,0.060,551
2019-09-15T14:45:39,42.805,6.029,CST-1368DR,7983,11178,15389,0.059,551
2019-09-15T14:48:41,42.805,6.029,CST-1368DR,7983,11178,15389,0.059,551
2019-09-15T14:51:42,42.805,6.029,CST-1368DR,7983,11177,15388,0.059,551
2019-09-15T14:54:44,42.805,6.029,CST-1368DR,7983,11181,15394,0.057,551
2019-09-15T14:57:46,42.805,6.029,CST-1368DR,7983,11181,15394,0.057,551
2019-09-15T15:00:47,42.805,6.029,CST-1368DR,7983,11182,15395,0.057,551
2019-09-15T15:03:49,42.805,6.029,CST-1368DR,7983,11181,15394,0.057,551
2019-09-15T15:06:51,42.805,6.029,CST-1368DR,7981,10868,14966,0.170,551
2019-09-15T15:09:52,42.805,6.029,CST-1368DR,7983,11180,15392,0.058,551
2019-09-15T15:12:54,42.805,6.029,CST-1368DR,7983,11182,15394,0.057,551
2019-09-15T15:15:55,42.805,6.029,CST-1368DR,7983,11179,15391,0.058,551
2019-09-15T15:18:57,42.805,6.029,CST-1368DR,7983,11180,15392,0.058,551
2019-09-15T15:21:59,42.805,6.029,CST-1368DR,7983,11180,15392,0.058,551
2019-09-15T15:25:00,42.805,6.029,CST-1368DR,7983,11182,15395,0.057,551
2019-09-15T15:28:02,42.805,6.029,CST-1368DR,7983,11182,15394,0.057,551
2019-09-15T15:31:04,42.805,6.029,CST-1368DR,7983,11180,15392,0.058,551
2019-09-15T15:34:05,42.805,6.029,CST-1368DR,7983,11180,15393,0.058,551
2019-09-15T15:37:07,42.805,6.029,CST-1368DR,7983,11181,15394,0.057,551
2019-09-15T15:40:08,42.805,6.029,CST-1368DR,7983,11176,15386,0.059,551
2019-09-15T15:43:10,42.805,6.029,CST-1368DR,7983,11178,15390,0.058,551
2019-09-15T15:46:12,42.805,6.029,CST-1368DR,7983,11179,15391,0.058,551
2019-09-15T15:49:13,42.805,6.029,CST-1368DR,7983,11180,15392,0.058,551
2019-09-15T15:52:15,42.805,6.029,CST-1368DR,7983,11180,15392,0.058,551
2019-09-15T15:55:17,42.805,6.029,CST-1368DR,7983,11181,15394,0.057,550
2019-09-15T15:58:19,42.805,6.029,CST-1368DR,7983,11181,15394,0.057,551
2019-09-15T16:01:21,42.805,6.029,CST-1368DR,7983,11180,15393,0.058,550
2019-09-15T16:04:22,42.805,6.029,CST-1368DR,7983,11178,15389,0.059,551
2019-09-15T16:07:24,42.805,6.029,CST-1368DR,7983,11180,15392,0.058,551
2019-09-15T16:10:26,42.805,6.029,CST-1368DR,7983,11179,15391,0.058,551
2019-09-15T16:13:27,42.805,6.029,CST-1368DR,7983,11180,15392,0.058,551
2019-09-15T16:16:29,42.805,6.029,CST-1368DR,7983,11180,15393,0.058,551
2019-09-15T16:19:31,42.805,6.029,CST-1368DR,7983,11180,15392,0.058,551
2019-09-15T16:22:32,42.805,6.029,CST-1368DR,7983,11181,15393,0.058,551
2019-09-15T16:25:34,42.805,6.029,CST-1368DR,7983,11179,15391,0.058,551
2019-09-15T16:28:35,42.805,6.029,CST-1368DR,7983,11180,15392,0.058,551
2019-09-15T16:31:37,42.805,6.029,CST-1368DR,7983,11182,15395,0.057,551
2019-09-15T16:34:39,42.805,6.029,CST-1368DR,7983,11177,15388,0.059,551
2019-09-15T16:37:41,42.805,6.029,CST-1368DR,7983,11180,15392,0.058,551